Racecast

MHSAA D1 Region 5 @ Lake Erie Metro - Woodhaven Host

Lake Erie Metro Park OFFICIAL · 5000m · Girls · Compiled · MI

110 runners from 2 divisions

These divisions were run separately. This is how their times compare, not how they finished — the places and scores below were never contested.

View full meet →

Team scores

Place Team Points 12345 67
1 Saline (MI) 18 1 2 3 4 8 10 18
2 Dexter (MI) 70 6 9 16 19 20 21 32
3 Temperance Bedford (MI) 99 13 15 17 26 28 29 31
4 Woodhaven Brownstown (MI) 99 11 12 24 25 27 30 36
5 Wyandotte Roosevelt (MI) 101 5 7 14 37 38 43 46
6 Monroe (MI) 174 22 34 35 39 44 60 61
7 Ypsilanti Lincoln (MI) 206 23 41 45 48 49 50 52
8 Gibraltar Carlson (MI) 250 33 40 57 58 62 68 72
9 Southgate Anderson (MI) 286 51 53 54 63 65 69 71
10 Dearborn (MI) 303 42 55 64 67 75 77
11 Belleville (MI) 352 56 59 66 79 92
12 Dearborn Fordson (MI) 361 47 74 76 80 84 86 88
13 Wayne Memorial (MI) 384 70 73 78 81 82 85 87
14 Detroit Western International (MI) 446 83 89 90 91 93

Not scored, fewer than five finishers: Taylor Kennedy (Merged with Truman 2018) (3), Dearborn Edsel Ford (2)

Results

Place Athlete Grade School Time Rating Points Actual race
1 Elianna Shwayder 12 Saline (MI) 1 18:20.8 136.5 1 1
2 Hannah Cummings 10 Saline (MI) 2 18:38.1 134.4 2 2
3 Gillian Walter 10 Saline (MI) 3 18:39.9 134.1 3 3
4 Gloria Park 12 Saline (MI) 4 18:45.4 133.5 4 4
5 Robyn Loselle 9 Wyandotte Roosevelt (MI) 1 18:52.1 132.7 5 5
6 Alison McLean 10 Dexter (MI) 1 19:04.7 131.2 6 6
7 Maggie Pawelczyk 9 Wyandotte Roosevelt (MI) 2 19:09.1 130.7 7 7
8 Abby Rentschler 11 Saline (MI) 5 19:20.3 129.5 8 8
9 Alexandra Ammann 11 Dexter (MI) 2 19:40.0 127.3 9 9
10 Haleigh Cummings 10 Saline (MI) 6 19:42.0 127.1 10 10
11 Aly Trapp 11 Woodhaven Brownstown (MI) 1 19:44.1 126.9 11 11
12 Chloe Hoye 9 Woodhaven Brownstown (MI) 2 19:46.5 126.6 12 12
13 Roma Lucarelli 10 Temperance Bedford (MI) 1 19:46.9 126.6 13 13
14 Alyssa Harlow 10 Wyandotte Roosevelt (MI) 3 19:47.1 126.6 14 14
15 Rachel Boulton 10 Temperance Bedford (MI) 2 19:47.7 126.5 15 15
16 Robin Jackson 12 Dexter (MI) 3 19:51.1 126.1 16 16
17 Katie Bules 11 Temperance Bedford (MI) 3 20:01.5 125.0 17 17
18 Danielle Fillmore 10 Saline (MI) 7 20:11.4 124.0 18 18
19 Charlotte Read 11 Dexter (MI) 4 20:25.0 122.6 19 19
20 Elizabeth Greve 11 Dexter (MI) 5 20:25.3 122.6 20 20
21 Elise Dombkowski 12 Dexter (MI) 6 20:33.1 121.8 21 21
22 Riley Delben 12 Monroe (CA) 1 20:33.8 121.8 22 22
23 Adela Myles 12 Ypsilanti Lincoln (MI) 1 20:35.8 121.6 23 23
24 Tea Greca 11 Woodhaven Brownstown (MI) 3 20:37.2 121.4 24 24
25 Kendra Cook 11 Woodhaven Brownstown (MI) 4 20:47.0 120.5 25 25
26 Kaitlyn Leist 12 Temperance Bedford (MI) 4 20:51.5 120.0 26 26
27 Chloe Watters 9 Woodhaven Brownstown (MI) 5 20:52.6 119.9 27 27
28 Morgan McCormick 10 Temperance Bedford (MI) 5 20:54.5 119.8 28 28
29 Sam Greeley 11 Temperance Bedford (MI) 6 21:05.5 118.7 29 29
30 Lindsey Machcinski 9 Woodhaven Brownstown (MI) 6 21:19.3 117.4 30 30
31 Phoebe Varney 10 Temperance Bedford (MI) 7 21:20.2 117.3 31 31
32 Cailin McLean 12 Dexter (MI) 7 21:31.2 116.3 32 32
33 Katy Woods 12 Gibraltar Carlson (MI) 1 21:33.4 116.2 33 33
34 Lindsey Zawacki 11 Monroe (CA) 2 21:34.9 116.0 34 34
35 Sidney Towalski 10 Monroe (CA) 3 21:39.4 115.6 35 35
36 Karina Villalobos 11 Woodhaven Brownstown (MI) 7 21:45.0 115.1 36 1
37 Hannah Henson 10 Woodhaven Brownstown (MI) 8 21:49.0 114.8 2
38 Elizabeth Raupp 10 Wyandotte Roosevelt (MI) 4 21:54.0 114.3 37 36
39 Brittany Cini 11 Wyandotte Roosevelt (MI) 5 21:54.5 114.3 38 37
40 Melinda Dietz 11 Woodhaven Brownstown (MI) 9 21:56.4 114.1 38
41 Hailey DiCarlo 12 Monroe (CA) 4 22:03.1 113.5 39 39
42 Alexandra Kaminske 10 Gibraltar Carlson (MI) 2 22:13.2 112.7 40 40
43 Aleah Kramarczyk 12 Ypsilanti Lincoln (MI) 2 22:16.1 112.4 41 41
44 Clare Whittaker 11 Dearborn (MI) 1 22:16.8 112.4 42 42
45 Julia Kanack 9 Wyandotte Roosevelt (MI) 6 22:17.2 112.3 43 43
46 Aliyah Scott 9 Monroe (CA) 5 22:20.1 112.1 44 44
47 Rianna Castelow 10 Woodhaven Brownstown (MI) 10 22:21.0 112.0 3
48 Jenipher Olivares 12 Ypsilanti Lincoln (MI) 3 22:25.8 111.6 45 45
49 Anna White 12 Woodhaven Brownstown (MI) 11 22:28.0 111.4 4
50 Melanie Farley 9 Wyandotte Roosevelt (MI) 7 22:34.5 110.9 46 46
51 Israa Ali 9 Dearborn Fordson (MI) 1 22:37.4 110.7 47 47
52 Elaine Bradley 9 Ypsilanti Lincoln (MI) 4 22:38.3 110.6 48 48
53 Airn Pero 10 Woodhaven Brownstown (MI) 12 22:41.0 110.4 5
54 Emily Czinski 12 Ypsilanti Lincoln (MI) 5 22:43.9 110.1 49 49
55 Marina Geider 12 Ypsilanti Lincoln (MI) 6 22:44.3 110.1 50 50
56 Morgan Fantow 11 Southgate Anderson (MI) 1 22:49.6 109.7 51 51
57 Erika Bournival 9 Ypsilanti Lincoln (MI) 7 22:52.6 109.4 52 52
58 Hailey Zacharski 12 Southgate Anderson (MI) 2 22:58.8 108.9 53 53
59 Hallie Tingstad 11 Southgate Anderson (MI) 3 23:04.8 108.5 54 54
60 Hannah Davison 12 Dearborn (MI) 2 23:05.2 108.4 55 55
61 Mallyn Ward 9 Belleville (MI) 1 23:06.3 108.4 56 56
62 Maleah Marshall 10 Gibraltar Carlson (MI) 3 23:07.3 108.3 57 57
63 Svenja Kunz 11 Gibraltar Carlson (MI) 4 23:08.5 108.2 58 58
64 Whitney Roll 11 Belleville (MI) 2 23:11.6 107.9 59 59
65 Autumn Green 9 Monroe (CA) 6 23:13.0 107.8 60 60
66 Kelsie Boyer 11 Monroe (CA) 7 23:13.6 107.8 61 61
67 Nadya Woodson 9 Woodhaven Brownstown (MI) 13 23:35.0 106.2 6
68 Juanita Gratowski 11 Gibraltar Carlson (MI) 5 23:49.2 105.1 62 62
69 Amber Simms 11 Southgate Anderson (MI) 4 23:53.7 104.8 63 63
70 Kennedy Rankin 11 Dearborn Edsel Ford (MI) 1 23:56.3 104.6 64
71 Chloe Haag 12 Dearborn (MI) 3 24:00.0 104.3 64 65
72 Jessica Hawkins 9 Woodhaven Brownstown (MI) 14 24:09.0 103.7 7
73 Christi Kent 9 Woodhaven Brownstown (MI) 15 24:11.0 103.5 8
74 Nichole Lapkewych 10 Southgate Anderson (MI) 5 24:11.9 103.5 65 66
75 Rachel Connors 11 Belleville (MI) 3 24:15.9 103.2 66 67
76 Heather Carr 11 Dearborn (MI) 4 24:19.2 102.9 67 68
77 Brooklyn Proudlock 10 Gibraltar Carlson (MI) 6 24:32.7 102.0 68 69
78 LeAnna Richards 11 Southgate Anderson (MI) 6 24:40.9 101.4 69 70
79 Kayla Hood 12 Wayne Memorial (MI) 1 24:41.9 101.4 70 71
80 Kyra Goeller 11 Southgate Anderson (MI) 7 24:49.9 100.8 71 72
81 Courtney Wallace 9 Gibraltar Carlson (MI) 7 24:51.7 100.7 72 73
82 Victoria Boyd 11 Wayne Memorial (MI) 2 24:55.6 100.4 73 74
83 Courtney Bonneau 12 Taylor Kennedy (Merged with Truman 2018) (MI) 1 25:14.1 99.2 75
84 Nour Eidy 10 Dearborn Fordson (MI) 2 25:30.5 98.2 74 76
85 Kristianna Ballnik 11 Dearborn (MI) 5 25:38.3 97.7 75 77
86 Tianna Hooks 12 Woodhaven Brownstown (MI) 16 25:43.0 97.4 9
87 Iman Silmi 10 Dearborn Fordson (MI) 3 25:48.5 97.0 76 78
88 Jasmine Perez 10 Dearborn (MI) 6 25:58.9 96.4 77 79
89 Verenna Gonzalez 9 Woodhaven Brownstown (MI) 17 26:08.0 95.8 10
90 Savannah Rutkey 10 Woodhaven Brownstown (MI) 18 26:08.0 95.8 11
91 Hansen Debbie 11 Taylor Kennedy (Merged with Truman 2018) (MI) 2 26:17.5 95.2 80
92 Kaiserin Macairan 12 Wayne Memorial (MI) 3 26:19.1 95.1 78 81
93 Anea Gaskin 11 Belleville (MI) 4 26:27.5 94.6 79 82
94 Dalya Kabbani 12 Dearborn Fordson (MI) 4 26:28.1 94.6 80 83
95 Nikita Bhangu 9 Wayne Memorial (MI) 4 26:39.1 93.9 81 84
96 Melaina Climer 9 Wayne Memorial (MI) 5 26:41.7 93.8 82 85
97 Angeles Marin 10 Detroit Western International (MI) 1 27:03.4 92.5 83 86
98 Brooke Griffith 11 Dearborn Edsel Ford (MI) 2 27:46.2 90.2 87
99 Heidi Newman 9 Dearborn Fordson (MI) 5 28:26.9 88.0 84 88
100 Gabrielle Niemiec 10 Wayne Memorial (MI) 6 28:46.0 87.0 85 89
101 Hiba Nasser 11 Dearborn Fordson (MI) 6 28:58.7 86.4 86 90
102 Alexandra Arzooyan 12 Wayne Memorial (MI) 7 29:34.3 84.7 87 91
103 Julia Haidar 12 Dearborn Fordson (MI) 7 29:36.5 84.6 88 92
104 Stefanny Perez 12 Detroit Western International (MI) 2 31:02.8 80.6 89 93
105 Carolina Gutierrez 11 Detroit Western International (MI) 3 31:11.4 80.3 90 94
106 Mia Woods 10 Detroit Western International (MI) 4 31:25.0 79.7 91 95
107 Raj Kaur 12 Woodhaven Brownstown (MI) 19 31:58.0 78.3 12
108 Amanda Riggs 11 Belleville (MI) 5 31:58.5 78.3 92 96
109 Ashley Jimenez 10 Detroit Western International (MI) 5 31:59.1 78.3 93 97
110 Devon White 11 Taylor Kennedy (Merged with Truman 2018) (MI) 3 37:49.0 66.2 98